Flag for U.S.A. Weather past 2 weeks in Cocoa Beach, Florida, U.S.A.

Now
85 °F

Passing clouds.


Feels Like: 94 °F
Forecast: 78 / 89 °F
Wind: 6 mph from East

Location: Cocoa / Patrick Air Force Base

Current Time: Aug 30, 2014 at 2:53:23 PM

Latest Report: Aug 30, 2014 at 12:58 PM


Visibility: 10 mi

Pressure: 30.14 "Hg

Humidity: 75%

Dew point: 76 °F

Location of Cocoa BeachLocation

Historic Weather in Cocoa Beach — Graph

°F

Cocoa Beach temperature yesterday

Maximum temperature yesterday: 89 °F (at 2:58 PM)
Minimum temperature yesterday: 73 °F (at 8:58 PM)
Average temperature yesterday: 82 °F

Past Weeks' High & Low Weather Summary

 TemperatureHumidityPressure
High93 °F (Aug 20, 11:55 AM)97% (Aug 15, 6:58 PM)30.16 "Hg (Aug 15, 6:58 PM)
Low73 °F (Aug 29, 8:58 PM)55% (Aug 20, 10:55 AM)29.79 "Hg (Aug 24, 3:58 PM)
Average83 °F80%30.01 "Hg
* Reported Aug 15 12:58 PM — Aug 30 12:58 PM, Cocoa Beach, Weather by CustomWeather, © 2014

Note: Actual official high and low records may vary slightly from our data, if they occured in-between our weather recording intervals... More about our weather records

Advertising

Cocoa Beach weather history for previous 24 hours

 ConditionsComfort  
Time TempWeatherWind HumidityBarometerVisibility
12:58 PM
Aug 30
85 °FPassing clouds.6 mph75%30.14 "Hg10 mi
11:58 AM83 °FPassing clouds.5 mph77%30.15 "Hg10 mi
10:58 AM82 °FSunny.2 mph81%30.15 "Hg10 mi
9:58 AM81 °FSunny.3 mph83%30.16 "Hg10 mi
8:58 AM80 °FPassing clouds.8 mph88%30.16 "Hg10 mi
7:58 AM79 °FClear.6 mph94%30.16 "Hg10 mi
6:58 AM78 °FClear.3 mph96%30.14 "Hg10 mi
5:58 AM78 °FClear.3 mph93%30.13 "Hg10 mi
4:58 AM79 °FClear.9 mph94%30.11 "Hg10 mi
3:58 AM78 °FClear.3 mph95%30.10 "Hg10 mi
2:58 AM78 °FClear.3 mph94%30.09 "Hg10 mi
1:58 AM77 °FClear.1 mph93%30.10 "Hg10 mi
12:58 AM76 °FClear.1 mph94%30.12 "Hg10 mi
11:58 PM
Aug 29
77 °FClear.9 mph91%30.14 "Hg10 mi
10:58 PM77 °FLight rain. Clear.6 mph89%30.14 "Hg10 mi
9:58 PM74 °FLight rain. Overcast.3 mph91%30.12 "Hg8 mi
9:03 PM73 °FThundershowers. Fog.13 mph89%30.11 "Hg4 mi
8:58 PM73 °FHeavy rain. Fog.16 mph89%30.12 "Hg2 mi
7:58 PM76 °FLight rain. Mostly cloudy.13 mph90%30.11 "Hg10 mi
6:58 PM79 °FBroken clouds.22 mph82%30.08 "Hg10 mi
5:58 PM86 °FSunny.10 mph84%30.05 "Hg10 mi
4:58 PM86 °FSunny.13 mph80%30.03 "Hg10 mi
2:58 PM89 °FSunny.15 mph73%30.05 "Hg10 mi
Weather by CustomWeather, © 2014

See weather overviewHow to use our weather pages